Weather History for Seminole, TX

Change the Weather History Date:

Sunday, February 10, 2013

  Actual Average (KHOB) Record (KHOB)
Temperature  
Mean Temperature 44 °F -  
Max Temperature 57 °F 58 °F 82 °F (1999)
Min Temperature 30 °F 31 °F 6 °F (2011)
Degree Days  
Heating Degree Days 22    
Moisture  
Dew Point 8 °F    
Average Humidity 24    
Maximum Humidity 46    
Minimum Humidity 13    
Precipitation  
Precipitation 0.00 in - - ()
Sea Level Pressure  
Sea Level Pressure 29.92 in    
Wind  
Wind Speed 11 mph (West)    
Max Wind Speed 22 mph    
Max Gust Speed 32 mph    
Visibility 10 miles    
Events      
Averages and records for this station are not official NWS values.
T = Trace of Precipitation, MM = Missing Value Source: NWS Daily Summary

Daily Weather History Graph

Daily Weather History Graph

Search for Another Location

Airport:

Trip Planner

Search our weather history database for the weather conditions in past years. The results will help you decide how hot, cold, wet, or windy it might be!

Date:

Astronomy

Feb. 10, 2013 Rise Set
Actual Time 7:38 AM CST 6:32 PM CST
Civil Twilight 7:12 AM CST 6:57 PM CST
Nautical Twilight 6:43 AM CST 7:26 PM CST
Astronomical Twilight 6:14 AM CST 7:55 PM CST
Moon 7:33 AM CST (2/10) 7:19 PM CST (2/10)
Length of Visible Light 11h 44m
Length of Day
10h 54m
New Moon, 0% of the Moon is Illuminated
Feb 10
New Moon
Feb 17
First Quarter
Feb 25
Full
Mar 4
Last Quarter
Mar 11
New

Hourly Weather History & Observations

Time (CST) Temp. Windchill Dew Point Humidity Pressure Visibility Wind Dir Wind Speed Gust Speed Precip Events Conditions
12:15 AM 44.6 °F 38.4 °F 5.9 °F 20% 29.85 in 10.0 mi West 12.7 mph 19.6 mph N/A   Clear
12:35 AM 43.9 °F 37.2 °F 6.3 °F 21% 29.86 in 10.0 mi WNW 13.8 mph - N/A   Clear
12:55 AM 43.0 °F 37.7 °F 7.2 °F 23% 29.86 in 10.0 mi West 9.2 mph - N/A   Clear
1:15 AM 42.1 °F 37.1 °F 7.5 °F 24% 29.86 in 10.0 mi West 8.1 mph - N/A   Clear
1:35 AM 41.2 °F 36.6 °F 7.5 °F 25% 29.87 in 10.0 mi West 6.9 mph - N/A   Clear
1:55 AM 40.3 °F 34.4 °F 7.2 °F 25% 29.87 in 10.0 mi West 9.2 mph - N/A   Clear
2:15 AM 40.5 °F 33.2 °F 7.2 °F 25% 29.86 in 10.0 mi West 12.7 mph - N/A   Clear
2:35 AM 40.5 °F 32.5 °F 7.7 °F 26% 29.87 in 10.0 mi West 15.0 mph 19.6 mph N/A   Clear
2:55 AM 40.1 °F 32.4 °F 8.2 °F 27% 29.87 in 10.0 mi West 13.8 mph - N/A   Clear
3:15 AM 39.2 °F 30.8 °F 8.8 °F 29% 29.86 in 10.0 mi West 15.0 mph - N/A   Clear
3:35 AM 39.0 °F 30.3 °F 9.3 °F 29% 29.87 in 10.0 mi West 16.1 mph 20.7 mph N/A   Clear
3:55 AM 39.4 °F 31.1 °F 9.5 °F 29% 29.87 in 10.0 mi West 15.0 mph - N/A   Clear
4:15 AM 38.8 °F 31.6 °F 9.7 °F 30% 29.87 in 10.0 mi West 11.5 mph - N/A   Clear
4:35 AM 37.9 °F 30.9 °F 10.0 °F 32% 29.88 in 10.0 mi WSW 10.4 mph - N/A   Clear
4:55 AM 37.2 °F 30.6 °F 10.2 °F 33% 29.87 in 10.0 mi WSW 9.2 mph - N/A   Clear
5:15 AM 35.6 °F 28.6 °F 10.0 °F 35% 29.89 in 10.0 mi WSW 9.2 mph - N/A   Clear
5:35 AM 34.3 °F 26.5 °F 10.2 °F 37% 29.89 in 10.0 mi WSW 10.4 mph - N/A   Clear
5:55 AM 34.7 °F 27.5 °F 10.4 °F 37% 29.89 in 10.0 mi WSW 9.2 mph - N/A   Clear
6:15 AM 34.2 °F 27.5 °F 10.4 °F 37% 29.90 in 10.0 mi WSW 8.1 mph - N/A   Clear
6:35 AM 33.3 °F 25.7 °F 10.9 °F 40% 29.90 in 10.0 mi WSW 9.2 mph - N/A   Clear
6:55 AM 32.2 °F 25.0 °F 11.3 °F 42% 29.90 in 10.0 mi West 8.1 mph - N/A   Clear
7:15 AM 31.6 °F 24.4 °F 11.3 °F 43% 29.91 in 10.0 mi WSW 8.1 mph - N/A   Clear
7:35 AM 30.4 °F 22.9 °F 11.3 °F 45% 29.91 in 10.0 mi WSW 8.1 mph - N/A   Clear
7:55 AM 30.0 °F 23.2 °F 11.7 °F 46% 29.91 in 10.0 mi WSW 6.9 mph - N/A   Clear
8:15 AM 30.7 °F 23.3 °F 12.0 °F 46% 29.91 in 10.0 mi WSW 8.1 mph - N/A   Clear
8:35 AM 31.8 °F 23.3 °F 12.6 °F 45% 29.92 in 10.0 mi West 10.4 mph - N/A   Clear
8:55 AM 36.3 °F 28.9 °F 12.6 °F 38% 29.93 in 10.0 mi West 10.4 mph - N/A   Clear
9:15 AM 37.9 °F 30.9 °F 12.6 °F 35% 29.94 in 10.0 mi WSW 10.4 mph - N/A   Clear
9:35 AM 39.9 °F 33.4 °F 13.5 °F 34% 29.95 in 10.0 mi West 10.4 mph - N/A   Clear
9:55 AM 43.5 °F 36.4 °F 13.6 °F 30% 29.95 in 10.0 mi West 15.0 mph 20.7 mph N/A   Clear
10:15 AM 45.3 °F 37.8 °F 12.6 °F 27% 29.95 in 10.0 mi WNW 18.4 mph 24.2 mph N/A   Clear
10:35 AM 46.6 °F - 12.2 °F 25% 29.96 in 10.0 mi WNW 21.9 mph 32.2 mph N/A   Clear
10:55 AM 47.5 °F - 12.4 °F 24% 29.96 in 10.0 mi WNW 19.6 mph 29.9 mph N/A   Clear
11:15 AM 48.9 °F - 11.7 °F 22% 29.96 in 10.0 mi WNW 20.7 mph 28.8 mph N/A   Clear
11:35 AM 49.8 °F - 10.9 °F 21% 29.95 in 10.0 mi WNW 20.7 mph 26.5 mph N/A   Clear
11:55 AM 50.5 °F - 10.2 °F 20% 29.95 in 10.0 mi WNW 18.4 mph 21.9 mph N/A   Clear
12:15 PM 51.6 °F - 9.9 °F 19% 29.95 in 10.0 mi West 16.1 mph 23.0 mph N/A   Clear
12:35 PM 51.8 °F - 9.9 °F 19% 29.94 in 10.0 mi WNW 17.3 mph 23.0 mph N/A   Clear
12:55 PM 52.0 °F - 9.3 °F 18% 29.93 in 10.0 mi West 18.4 mph 21.9 mph N/A   Clear
1:15 PM 53.1 °F - 9.1 °F 17% 29.92 in 10.0 mi WNW 12.7 mph - N/A   Clear
1:35 PM 54.0 °F - 8.8 °F 16% 29.91 in 10.0 mi West 13.8 mph 20.7 mph N/A   Clear
1:55 PM 55.0 °F - 9.0 °F 16% 29.90 in 10.0 mi West 15.0 mph 21.9 mph N/A   Clear
2:15 PM 55.6 °F - 8.6 °F 15% 29.90 in 10.0 mi West 19.6 mph 25.3 mph N/A   Clear
2:35 PM 56.3 °F - 7.7 °F 14% 29.89 in 10.0 mi West 16.1 mph - N/A   Clear
2:55 PM 56.7 °F - 7.5 °F 14% 29.89 in 10.0 mi West 17.3 mph - N/A   Clear
3:15 PM 57.0 °F - 7.2 °F 14% 29.89 in 10.0 mi West 16.1 mph 24.2 mph N/A   Clear
3:35 PM 57.6 °F - 7.0 °F 13% 29.89 in 10.0 mi West 15.0 mph 20.7 mph N/A   Clear
3:55 PM 57.7 °F - 6.8 °F 13% 29.89 in 10.0 mi WNW 16.1 mph 21.9 mph N/A   Clear
4:15 PM 57.6 °F - 6.6 °F 13% 29.90 in 10.0 mi WSW 15.0 mph 19.6 mph N/A   Clear
4:35 PM 57.2 °F - 6.6 °F 13% 29.91 in 10.0 mi West 11.5 mph 19.6 mph N/A   Clear
4:55 PM 57.4 °F - 6.6 °F 13% 29.91 in 10.0 mi WNW 8.1 mph - N/A   Clear
5:15 PM 57.0 °F - 6.4 °F 13% 29.91 in 10.0 mi West 4.6 mph - N/A   Clear
5:35 PM 57.2 °F - 5.7 °F 13% 29.91 in 10.0 mi West 5.8 mph - N/A   Clear
5:55 PM 56.7 °F - 5.7 °F 13% 29.91 in 10.0 mi WNW 4.6 mph - N/A   Clear
6:15 PM 55.4 °F - 5.5 °F 13% 29.91 in 10.0 mi Calm Calm - N/A   Clear
6:35 PM 53.2 °F - 5.5 °F 15% 29.91 in 10.0 mi Calm Calm - N/A   Clear
6:55 PM 51.6 °F - 5.5 °F 15% 29.93 in 10.0 mi Calm Calm - N/A   Clear
7:15 PM 50.4 °F - 5.4 °F 16% 29.93 in 10.0 mi Calm Calm - N/A   Clear
7:35 PM 48.4 °F - 5.0 °F 17% 29.94 in 10.0 mi Calm Calm - N/A   Clear
7:55 PM 46.2 °F - 5.2 °F 19% 29.95 in 10.0 mi Calm Calm - N/A   Clear
8:15 PM 46.0 °F - 4.6 °F 18% 29.95 in 10.0 mi Calm Calm - N/A   Clear
8:35 PM 46.4 °F - 4.6 °F 18% 29.96 in 10.0 mi Calm Calm - N/A   Clear
8:55 PM 45.7 °F - 5.2 °F 19% 29.96 in 10.0 mi Calm Calm - N/A   Clear
9:15 PM 44.1 °F - 6.3 °F 21% 29.97 in 10.0 mi Calm Calm - N/A   Clear
9:35 PM 43.3 °F - 6.8 °F 22% 29.98 in 10.0 mi Calm Calm - N/A   Clear
9:55 PM 43.2 °F - 6.6 °F 22% 29.98 in 10.0 mi Calm Calm - N/A   Clear
10:15 PM 43.9 °F - 6.1 °F 21% 29.99 in 10.0 mi Calm Calm - N/A   Clear
10:35 PM 42.8 °F - 6.6 °F 23% 30.00 in 10.0 mi Calm Calm - N/A   Clear
10:55 PM 41.2 °F - 7.2 °F 25% 30.00 in 10.0 mi Calm Calm - N/A   Clear
11:15 PM 42.3 °F - 6.6 °F 23% 30.00 in 10.0 mi Calm Calm - N/A   Clear
11:35 PM 41.0 °F - 6.8 °F 24% 30.00 in 10.0 mi Calm Calm - N/A   Clear
11:55 PM 40.3 °F - 7.2 °F 25% 30.00 in 10.0 mi Calm Calm - N/A   Clear